Flag for Canada Weather past 2 weeks in Prince George, British Columbia, Canada

Now
57 °F

Sunny.


Feels Like: 53 °F
Forecast: 30 / 60 °F
Wind: 20 mph from Southwest

Location: Prince George

Current Time: Apr 26, 2015 at 2:28:44 PM

Latest Report: Apr 26, 2015 at 2:00 PM


Visibility: 9 mi

Pressure: 30.00 "Hg

Humidity: 39%

Dew point: 32 °F

Location of Prince GeorgeLocation

Historic Weather in Prince George — Graph

°F

Prince George temperature yesterday

Maximum temperature yesterday: 46 °F (at 3:00 PM)
Minimum temperature yesterday: 34 °F (at 3:53 AM)
Average temperature yesterday: 40 °F

Past Weeks' High & Low Weather Summary

 TemperatureHumidityPressure
High68 °F (Apr 20, 5:00 PM)100% (Apr 23, 12:00 AM)30.51 "Hg (Apr 23, 12:00 AM)
Low23 °F (Apr 13, 6:00 AM)21% (Apr 14, 6:00 PM)29.56 "Hg (Apr 11, 2:00 PM)
Average42 °F66%29.99 "Hg
* Reported Apr 11 1:00 PM — Apr 26 1:00 PM, Prince George, Weather by CustomWeather, © 2015

Note: Actual official high and low records may vary slightly from our data, if they occured in-between our weather recording intervals... More about our weather records

Advertising

Prince George weather history for previous 24 hours

 ConditionsComfort  
Time TempWeatherWind HumidityBarometerVisibility
1:00 PM
Sun, Apr 26
55 °FSunny.20 mph36%30.01 "Hg9 mi
12:00 PM54 °FSunny.9 mph47%30.03 "Hg9 mi
11:00 AM50 °FSunny.9 mph62%30.05 "Hg9 mi
10:00 AM43 °FSunny.No wind76%30.07 "Hg9 mi
9:00 AM36 °FScattered clouds.2 mph93%30.09 "Hg9 mi
8:51 AM36 °FScattered clouds.2 mph93%30.09 "Hg9 mi
8:00 AM32 °FFog.2 mphN/A30.09 "Hg0 mi
7:48 AM32 °FFog.3 mphN/A30.08 "Hg0 mi
7:00 AM28 °FIce fog.2 mph100%30.08 "Hg0 mi
6:00 AM25 °FIce fog.No wind100%30.08 "Hg0 mi
5:00 AM27 °FClear.3 mph100%30.07 "Hg9 mi
4:55 AM27 °FPassing clouds.6 mph100%30.07 "Hg7 mi
4:00 AM28 °FClear.2 mph100%30.06 "Hg9 mi
3:00 AM28 °FIce fog.No wind100%30.06 "Hg1 mi
2:59 AM28 °FIce fog.No wind100%30.07 "Hg1 mi
2:00 AM32 °FClear.2 mph93%30.06 "Hg9 mi
1:00 AM36 °FPassing clouds.No wind93%30.05 "Hg9 mi
12:00 AM34 °FPassing clouds.No wind93%30.04 "Hg9 mi
11:00 PM
Sat, Apr 25
39 °FOvercast.No wind87%30.02 "Hg9 mi
10:00 PM41 °FPassing clouds.3 mph81%30.02 "Hg9 mi
9:00 PM43 °FOvercast.5 mph76%30.02 "Hg9 mi
8:00 PM45 °FMore clouds than sun.6 mph76%30.01 "Hg9 mi
7:00 PM46 °FMore clouds than sun.5 mph53%30.00 "Hg9 mi
6:00 PM46 °FOvercast.3 mph53%30.00 "Hg9 mi
5:00 PM46 °FOvercast.5 mph53%30.00 "Hg9 mi
4:00 PM46 °FOvercast.7 mph53%29.99 "Hg9 mi
3:00 PM46 °FMostly cloudy.6 mph62%29.99 "Hg9 mi
2:00 PM43 °FMostly cloudy.5 mph76%30.00 "Hg9 mi
Weather by CustomWeather, © 2015

See weather overviewHow to use our weather pages